Torna al catalogo

STARLINK-11554

AttivoComunicazioniVLEO
NORAD 62833·PAYLOAD·🇺🇸 United States

Lanciato Jan 27, 2025 da Cape Canaveral Space Force Station

Loading…

Prossimi Passaggi (prossime 24 ore)

TLE

AggiornatoSource: CelesTrak SupGP

Epoca: Sep 14, 2026, 22:55 UTC

1 62833C 25019E   26257.95534722  .00062850  00000+0  48823-3 0  2573
2 62833  43.0007 245.4530 0001460 259.0550 112.0100 15.70804143    17

Traccia STARLINK-11554 in tempo reale con AllMySat

Download on the App Store